Tracking 18630 objects as of 23-May-2017
HD Live streaming from Space Station
objects crossing your sky now

COSMOS 2251 DEB

Track COSMOS 2251 DEB now!
10-day predictions


NORAD ID: 34131
Int'l Code: 1993-036LC
Perigee: 696.4 km
Apogee: 709.9 km
Inclination: 74.1 °
Period: 98.7 minutes
Semi major axis: 7074 km
RCS: 0.018 m2 (small)
Launch date: June 16, 1993
Source: Commonwealth of Independent States (former USSR) (CIS)
Launch site: PLESETSK MISSILE AND SPACE COMPLEX (PKMTR)

Note: This is SATELLITE DEBRIS
Your satellite tracking list
Your tracking list is empty





NASA's NSSDC Master Catalog

Two Line Element Set (TLE):
1 34131U 93036LC  17142.90824336 +.00002470 +00000-0 +53035-3 0  9995
2 34131 074.1212 185.3860 0009550 235.0777 186.7325 14.59118704435916
Source of the keplerian elements: AFSPC